Location: Lugrin
(46.4033°N, 6.6674°E)
Time: 10:44:04
(UTC+00:00)

Daily predictions for brighter satellites

Satellite Brightness Start Highest point End
(mag) Time Altitude Azimuth Time Altitude Azimuth Time Altitude Azimuth
Tsikada Rocket 4.1 17:56:46 10° N 18:02:59 89° E 18:09:09 10° S
CZ-2C R/B 3.3 17:58:40 10° SSE 18:03:46 57° ENE 18:09:10 10° N
SJ 16-02 1.5 17:59:24 10° SSW 18:03:46 81° WNW 18:08:11 10° NNE
Cosmos 1378 Rocket 3.9 17:59:37 10° NNW 18:03:56 72° W 18:08:12 10° S
Cosmos 990 Rocket 4.0 17:59:01 10° S 18:04:05 62° ESE 18:09:10 10° NNE
Cosmos 2227 4.3 17:59:01 10° S 18:04:37 57° ESE 18:10:14 10° NNE
Cosmos 923 Rocket 4.4 17:59:51 10° NNW 18:05:03 69° WSW 18:10:12 10° S
ISS -1.9 18:03:24 10° S 18:05:28 15° SE 18:07:33 10° E
Abrixas rocket 1.8 18:05:02 10° WSW 18:07:53 83° SSE 18:10:44 10° ENE
Okean 2 Rocket 4.5 18:06:04 10° SE 18:09:15 19° E 18:12:25 10° NE
Cosmos 1943 3.3 18:04:33 10° NNW 18:10:11 65° ENE 18:15:49 10° SE
NOSS 8 (F) 4.1 18:07:19 10° SW 18:10:37 86° SE 18:13:38 10° NE
Helios 1A Rocket 4.2 18:07:42 10° S 18:11:39 47° W 18:15:40 10° NNW
Cosmos 1939 Rocket 4.1 18:07:59 10° S 18:11:58 49° W 18:16:01 10° NNW
Okean-O 3.1 18:07:54 10° S 18:12:18 68° WSW 18:16:45 10° NNW
Lacrosse 5 rocket 2.7 18:08:33 10° W 18:12:33 41° NNW 18:16:46 10° NE
Ariane Rocket 4.0 18:11:28 10° ESE 18:15:42 28° ENE 18:19:59 10° N
Cosmos 1437 2.6 18:15:25 10° N 18:18:23 55° ENE 18:21:19 10° SSE
NOSS 2-2 (C) 4.1 18:16:52 10° S 18:19:50 26° ESE 18:22:58 10° ENE
CZ-2D R/B 4.4 18:17:04 10° S 18:20:50 49° W 18:24:38 10° NNW
Meteor 1-21 4.2 18:15:41 10° N 18:21:18 69° ENE 18:26:51 10° SSE
USA 116 3.4 18:19:43 10° NNE 18:23:07 72° ESE 18:26:53 10° S
CSL-04 Debris 4.2 18:18:06 10° SSE 18:23:29 82° ENE 18:28:54 10° NNW
GP-B 3.9 18:20:30 10° N 18:24:53 58° W 18:29:13 10° SSW
YAOGAN 1 3.1 18:23:38 10° S 18:27:55 64° WSW 18:32:14 10° NNW
Cosmos 1603 3.9 18:23:57 10° NNW 18:29:39 80° WSW 18:35:15 10° SSE
HJ-1C 3.2 18:27:04 10° SSE 18:30:21 77° ENE 18:33:39 10° N
Cosmos 1898 Rocket 3.5 18:26:00 10° SSW 18:31:11 87° WNW 18:36:24 10° NNE
CSL-04 Rocket 3.7 18:27:48 10° SSE 18:33:12 87° WSW 18:38:45 10° NNW
Cosmos 1867 3.7 18:28:10 10° NNW 18:33:36 59° NE 18:38:36 12° SE
Okean 2 3.8 18:30:34 10° NNW 18:34:44 69° W 18:38:51 10° S
USA 234 3.9 18:37:03 10° ENE 18:42:45 31° SE 18:48:25 10° S
Cosmos 858 Rocket 4.5 18:39:09 10° SSW 18:44:23 89° ESE 18:49:38 10° NNE
CREW DRAGON DEMO-1 DEB 4.4 18:43:06 10° WNW 18:45:49 28° N 18:47:59 14° NE
Cosmos 1782 Rocket 3.9 18:44:11 10° SSW 18:48:33 70° W 18:53:01 10° N
Cosmos 1975 3.9 18:45:42 10° SSW 18:49:41 50° WNW 18:53:40 10° N
CZ-4 R/B 3.5 18:46:27 10° SSW 18:50:11 30° W 18:53:57 10° NNW
Cosmos 2151 Rocket 4.2 18:46:14 10° SSE 18:50:15 34° E 18:54:19 10° NNE
Cosmos 372 Rocket 4.1 18:45:17 10° S 18:50:20 50° ESE 18:55:24 10° NNE
USA 186 1.9 18:48:48 17° SE 18:50:54 49° ENE 18:54:02 10° N
Cosmos 1025 Rocket 3.3 18:48:18 10° N 18:52:34 48° ENE 18:56:09 14° SSE
Cosmos 1072 Rocket 4.4 18:49:47 10° S 18:55:58 69° E 19:02:16 10° NNE
Nadezhda 4 Rocket 4.1 18:53:22 10° N 18:59:20 51° ENE 19:04:42 13° SSE
Cosmos 1937 Rocket 3.9 18:55:39 10° SSW 19:00:53 67° WNW 19:06:07 10° NNE
OBJECT-B 1.9 19:01:23 26° ENE 19:01:25 26° ENE 19:04:12 10° NNE
Cosmos 2034 Rocket 4.2 18:56:06 10° SSE 19:02:13 52° E 19:08:21 10° NNE
Cosmos 1125 Rocket 4.3 18:59:22 10° SSE 19:03:52 29° E 19:08:22 10° NE
MOS 1 Rocket 3.3 18:59:41 10° N 19:04:12 75° WNW 19:08:30 10° SSW
CZ-2C R/B 3.1 19:02:57 10° SSW 19:04:25 12° S 19:04:39 12° S
Exosat Rocket 4.3 19:00:17 10° SSE 19:05:09 29° ESE 19:09:28 10° NE
FREGAT/IRIS 2.4 19:05:32 49° ENE 19:05:32 49° ENE 19:08:03 10° N
Cosmos 1674 3.4 19:05:48 10° N 19:09:19 33° ENE 19:09:42 32° E
Cosmos 1975 Rocket 4.3 19:08:13 10° NNW 19:12:17 41° W 19:16:20 10° SSW
In-Cosmos 22 4.0 19:11:07 10° N 19:16:26 85° ENE 19:21:24 12° SSE
NOSS 2-2 (E) 3.5 19:13:31 10° SW 19:17:00 65° NW 19:20:59 10° NE
Resurs 01 Rocket 2.4 19:19:17 31° E 19:19:46 32° ENE 19:23:44 10° N
H-2A R/B 3.3 19:15:36 10° SSW 19:20:14 40° W 19:25:00 10° NNW
ARGOS 3.8 19:16:06 10° S 19:21:21 54° W 19:26:38 10° NNW
ATLAS 2AS CENTAUR R/B 4.3 19:15:41 10° SSE 19:24:48 19° ENE 19:27:47 10° ENE
Cosmos 1707 3.4 19:18:06 10° NNW 19:21:52 54° W 19:25:36 10° S
SJ-6B 2.6 19:21:47 28° S 19:23:39 86° WSW 19:27:25 10° NNW
CZ-2C R/B 2.6 19:19:10 10° NNE 19:24:43 78° ESE 19:30:19 10° S
NOSS 2-2 (D) 3.4 19:21:57 10° SW 19:25:26 68° NW 19:29:21 10° NE
KORONAS-FOTON 4.0 19:23:10 10° N 19:27:00 50° ENE 19:27:14 49° E
MOS 1 4.3 19:23:05 14° SSE 19:28:07 86° WSW 19:33:51 10° NNW
Cosmos 1174 4.5 19:24:12 10° SSW 19:29:02 65° ESE 19:35:11 10° NE
Cosmos 1048 Rocket 3.9 19:26:32 10° NNW 19:31:52 77° ENE 19:34:10 35° SSE
Cosmos 1844 3.8 19:28:38 10° S 19:34:05 49° ESE 19:39:32 10° NE
CENTAUR R/B 3.3 19:26:22 10° NW 19:34:14 61° NE 19:38:32 32° ESE
Cosmos 1634 Rocket 4.3 19:34:23 36° ESE 19:35:53 42° E 19:41:39 10° NNE
ARIANE 5 R/B 3.8 19:37:43 27° NE 19:37:43 27° NE 19:40:47 10° N
Cosmos 2263 Rocket 3.9 19:34:10 10° WSW 19:39:09 33° NW 19:44:13 10° NNE
ATLAS 3B R/B 3.8 19:34:01 10° NNW 19:39:57 30° NNE 19:42:49 23° ENE
Cosmos 2285 Rocket 4.0 19:34:19 10° S 19:40:23 53° ESE 19:46:32 10° NNE
ISS -3.3 19:38:29 10° WSW 19:41:14 57° WSW 19:41:14 57° WSW
USA 238 DEB 3.8 19:34:55 10° NW 19:42:10 84° NE 19:45:38 36° SE
USA 238 3.8 19:35:01 10° NW 19:42:16 84° NE 19:45:43 36° SE
Abrixas rocket 3.3 19:40:28 10° WNW 19:42:31 38° NW 19:42:31 38° NW
Cosmos 1844 Rocket 2.5 19:40:28 10° SSW 19:46:00 74° ESE 19:51:36 10° NNE
Okean 2 Rocket 4.2 19:42:39 10° SSW 19:46:58 45° WNW 19:51:18 10° N
Spot 2 Rocket 4.4 19:48:07 31° ENE 19:48:07 31° ENE 19:52:13 10° N
Okean 1 Rocket 3.0 19:51:22 69° E 19:51:22 69° E 19:55:42 10° NNE
Lacrosse 5 rocket 3.6 19:49:18 10° WNW 19:52:42 21° N 19:55:13 14° NE
Ariane Rocket 4.1 19:49:58 12° S 19:54:28 43° W 19:59:19 10° NNW
Cosmos 1092 Rocket 3.8 19:51:38 10° N 19:57:50 86° E 20:00:15 40° SSE
Meteor 1-15 Rocket 4.2 19:52:44 10° SSW 19:58:20 83° W 20:04:05 10° N
Resurs 1-3 3.7 19:57:57 58° SSW 19:58:41 72° WSW 20:03:07 10° NNW
Cosmos 2195 Rocket 4.4 19:54:50 10° N 20:01:09 81° E 20:03:07 47° SSE
Cosmos 494 Rocket 3.9 19:59:34 10° NNW 20:04:52 86° WSW 20:05:37 67° SSE
SPOT 3 Rocket 3.6 20:03:38 49° S 20:05:00 75° WSW 20:10:11 10° NNW
Cosmos 2026 Rocket 3.9 19:58:59 10° N 20:05:22 76° E 20:06:56 53° SSE
CZ-2C R/B 3.7 20:01:30 10° NNE 20:05:30 72° NNE 20:05:30 72° NNE
Meteor 2-13 Rocket 4.5 20:00:21 10° N 20:06:33 80° W 20:09:02 39° S
Cosmos 1833 Rocket 3.7 20:02:48 10° NNW 20:07:46 32° NE 20:07:46 32° NE
NOSS 3-2 (A) 4.2 20:02:56 10° NW 20:10:28 68° WSW 20:13:57 38° SSE
Terra 3.8 20:19:12 17° NNE 20:19:12 17° NNE 20:20:59 10° NNE
Cosmos 1428 Rocket 4.4 20:11:24 10° N 20:17:43 87° ENE 20:18:51 63° SSE
Cosmos 1626 3.9 20:16:01 10° N 20:17:51 27° N 20:17:51 27° N
Cosmos 2279 Rocket 4.2 20:20:51 54° ENE 20:20:51 54° ENE 20:26:14 10° NNE
Cosmos 2142 Rocket 4.4 20:21:19 67° E 20:21:19 67° E 20:27:29 10° NNE
USA 234 3.2 20:19:38 10° NE 20:26:13 86° NNW 20:32:47 10° WSW
Meteor 2-5 Rocket 4.0 20:24:06 10° NNW 20:29:39 63° W 20:30:35 55° SW
OBJECT-B 3.7 20:34:35 16° WNW 20:34:35 16° WNW 20:36:05 10° NW
SPOT 5 4.2 20:40:09 34° NNE 20:40:09 34° NNE 20:43:28 10° N
Meteor 1-22 Rocket 4.4 20:43:03 69° WSW 20:43:26 72° WNW 20:49:29 10° N
NOSS 3-2 (C) 4.2 20:37:05 10° NW 20:44:36 66° WSW 20:46:11 55° S
Cosmos 2082 Rocket 3.3 20:42:36 10° NNW 20:46:33 33° NNE 20:46:33 33° NNE
ERS-1 Rocket 4.2 20:57:24 36° N 20:57:24 36° N 21:00:23 10° N
COSMOS 2406 3.6 20:49:49 10° NNW 20:54:20 58° NNW 20:54:20 58° NNW
Resurs 01 Rocket 3.4 20:56:50 28° W 20:56:50 28° W 21:00:09 10° NW
Meteor 1-24 Rocket 4.4 20:51:11 10° NNW 20:56:23 49° W 20:56:23 49° W
Cosmos 2098 Rocket 4.3 20:57:29 10° N 21:03:50 69° N 21:03:50 69° N
Lacrosse 4 Rocket 4.0 21:01:16 10° NNW 21:02:11 15° N 21:02:11 15° N
ATLAS 2AS CENTAUR R/B 2.9 21:03:56 10° SW 21:11:59 88° NNW 21:19:51 10° NE
Cosmos 1655 Rocket 4.4 21:07:24 10° N 21:12:30 61° NNW 21:12:30 61° NNW
Cosmos 2278 Rocket 4.4 21:22:33 16° NNE 21:22:33 16° NNE 21:23:39 10° NNE
CENTAUR R/B 3.8 21:17:19 10° NW 21:25:00 44° WSW 21:25:44 44° SW
ATLAS 3B R/B 3.1 21:24:32 10° NW 21:30:03 61° NW 21:30:03 61° NW
Lacrosse 5 rocket 4.2 21:29:18 10° NW 21:30:51 18° NNW 21:30:51 18° NNW
Cosmos 1833 Rocket 4.4 21:46:33 10° NW 21:49:28 29° NW 21:49:28 29° NW
Terra 4.3 21:58:06 19° NNW 21:58:06 19° NNW 21:59:29 10° NNW
USA 234 4.2 22:02:46 10° NE 22:08:50 42° NNW 22:14:55 10° W
Cosmos 2082 Rocket 4.4 22:26:43 10° NW 22:28:23 19° NW 22:28:23 19° NW
ATLAS 2AS CENTAUR R/B 4.3 22:59:08 19° W 23:03:56 33° NNW 23:10:51 10° NNE
